DateTimeUTC,F1_A11,F1_S11,BsB_S11,BsG_S11,BsR_S11,BbsB_S11,BbsG_S11,BbsR_S11,BaB_A11,BaG_A11,BaR_A11,Tu_S11,T_S11,Uu_S11,U_S11,P_S11,T1_A11
2021-10-06T14:00:00Z,00000200,21000000,,,,,,,-000.02,0000.56,0000.28,16.6,23.6,,00.0,0669.2,30.9
2021-10-06T14:01:00Z,00000200,21000000,,,,,,,0000.05,-000.04,-000.12,16.6,23.6,,00.0,0669.2,30.9
2021-10-06T14:02:00Z,00000200,21000000,,,,,,,0000.31,0000.23,0000.16,16.7,23.6,,00.0,0669.2,30.9
2021-10-06T14:03:00Z,00000200,61000000,,,,,,,0000.27,0000.56,0000.25,16.7,23.7,,00.0,0669.2,30.9
2021-10-06T14:04:00Z,00000200,41000000,0000.75,0000.49,0000.13,0000.94,-000.32,-000.09,0000.00,-000.40,0000.18,17.1,23.6,00.1,00.1,0670.1,30.9
2021-10-06T14:05:00Z,00000200,01000000,0001.04,0000.22,0000.23,-000.03,0000.13,0000.23,-000.04,0000.28,-000.05,17.2,23.6,00.1,00.1,0670.1,30.9
2021-10-06T14:06:00Z,00000200,01000000,0000.94,0000.40,0000.29,-000.27,-000.27,0000.32,0000.17,-000.36,-000.19,17.1,23.6,00.1,00.1,0670.1,30.9
2021-10-06T14:07:00Z,00000200,01000000,0000.23,0000.82,0000.27,0000.04,-000.32,0000.24,0000.14,0000.32,0000.06,17.1,23.6,00.2,00.1,0670.1,30.9
2021-10-06T14:08:00Z,00000200,01000000,0000.32,0000.77,-000.04,0000.01,-000.07,0000.23,-000.16,-000.22,0000.13,17.1,23.5,00.1,00.1,0670.1,30.9
2021-10-06T14:09:00Z,00000200,01000000,0000.55,0000.74,0000.30,0000.72,-000.28,0000.04,0000.30,0000.18,-000.04,17.0,23.5,00.2,00.1,0670.1,30.9
2021-10-06T14:10:00Z,00000200,01000000,0001.28,0000.53,0000.23,0000.09,0000.02,-000.06,0000.27,0000.35,0000.35,17.0,23.5,00.1,00.1,0670.2,30.9
2021-10-06T14:11:00Z,00000200,01000000,0000.42,0000.90,0000.12,0000.02,0000.14,0000.08,0000.62,0000.24,0000.42,16.9,23.4,00.2,00.1,0670.2,30.9
2021-10-06T14:12:00Z,00000200,01000000,0001.16,0000.24,0000.05,0000.27,0000.18,0000.14,-000.25,0000.11,-000.64,16.9,23.4,00.2,00.1,0670.1,30.9
2021-10-06T14:13:00Z,00000200,01000000,0000.68,0000.42,0000.43,-000.36,0000.07,0000.16,0000.24,-000.10,0000.49,16.9,23.4,00.1,00.1,0670.1,30.9
2021-10-06T14:14:00Z,00000200,01000000,0000.69,0000.72,0000.28,-000.26,0000.05,0000.11,0000.77,0001.18,0000.62,16.8,23.4,00.2,00.1,0670.1,30.8
2021-10-06T14:15:00Z,00000200,01000000,0000.33,0000.43,0000.34,0000.08,-000.20,0000.13,0000.46,0000.60,0000.77,16.9,23.4,00.2,00.1,0670.2,30.9
2021-10-06T14:16:00Z,00000200,01000000,0000.91,0000.53,0000.02,-000.08,0000.07,-000.15,0000.65,0000.58,0000.22,17.0,23.4,00.2,00.2,0670.2,30.9
2021-10-06T14:17:00Z,00000200,01000000,0000.34,0000.52,0000.13,-000.50,-000.02,-000.04,0000.14,-000.00,0000.08,17.1,23.5,00.2,00.1,0670.2,30.9
2021-10-06T14:18:00Z,00000200,01000000,0001.06,0000.53,0000.39,-000.13,0000.09,0000.25,0000.53,0000.17,0000.30,17.2,23.5,00.3,00.2,0670.2,30.9
2021-10-06T14:19:00Z,00000200,01000000,0000.79,0000.63,0000.24,0000.17,-000.18,-000.11,-000.26,0000.28,-000.07,17.3,23.6,00.2,00.2,0670.2,30.9
2021-10-06T14:20:00Z,00000200,01000000,0000.80,0000.47,0000.46,-000.07,-000.11,-000.06,0000.26,0000.01,-000.01,17.3,23.6,00.3,00.2,0670.2,30.9
2021-10-06T14:21:00Z,00000200,01000000,0001.14,0000.62,0000.41,0000.17,0000.18,0000.25,-000.13,0000.04,-000.19,17.2,23.6,00.3,00.2,0670.2,30.9
2021-10-06T14:22:00Z,00000200,01000000,0000.76,0000.22,0000.22,-000.31,0000.06,0000.33,0000.31,-000.37,0000.36,17.2,23.6,00.2,00.2,0670.2,30.9
2021-10-06T14:23:00Z,00000200,01000000,0001.09,0000.38,0000.35,-000.29,-000.19,-000.05,0000.33,0000.51,0000.26,17.2,23.5,00.2,00.2,0670.2,30.9
2021-10-06T14:24:00Z,00000200,01000000,0000.79,0000.56,0000.16,-000.12,-000.07,0000.45,-000.37,-000.30,-000.09,17.1,23.5,00.3,00.2,0670.2,30.9
2021-10-06T14:25:00Z,00000200,01000000,0000.46,0000.59,0000.24,0000.29,-000.08,-000.12,0000.33,0000.16,-000.23,17.1,23.5,00.2,00.2,0670.2,30.9
2021-10-06T14:26:00Z,00000200,01000000,0000.36,0000.67,0000.06,-000.13,0000.10,0000.02,0000.15,0000.47,0000.29,17.0,23.5,00.3,00.2,0670.2,30.9
2021-10-06T14:27:00Z,00000200,01000000,0000.64,0000.34,0000.58,0000.03,0000.12,0000.23,0000.34,-000.01,0000.17,17.0,23.5,00.3,00.2,0670.1,30.9
2021-10-06T14:28:00Z,00000200,01000000,0000.79,0000.43,0000.21,-000.36,-000.31,0000.42,0000.23,0000.38,0000.44,17.0,23.4,00.2,00.2,0670.1,30.9
2021-10-06T14:29:00Z,00000200,01000000,-000.28,0000.48,0000.05,-000.21,-000.11,0000.11,0000.44,0000.54,0000.32,16.9,23.4,00.2,00.1,0670.1,30.9
2021-10-06T14:30:00Z,00000200,01000000,-000.13,0000.40,0000.46,0000.37,-000.07,0000.33,0000.08,-000.08,-000.03,17.0,23.4,00.3,00.2,0670.1,30.9
2021-10-06T14:31:00Z,00000200,01000000,0001.53,0000.50,0000.24,-000.11,-000.34,0000.12,0000.26,0000.51,0000.49,17.1,23.4,00.2,00.1,0670.2,30.9
2021-10-06T14:32:00Z,00000200,01000000,0000.67,0000.32,0000.03,-000.11,-000.03,-000.00,0000.24,0000.15,0000.27,17.2,23.5,00.2,00.1,0670.2,30.9
2021-10-06T14:33:00Z,00000200,01000000,0000.25,0000.55,0000.28,0000.22,-000.02,0000.05,0000.42,0000.51,-000.23,17.3,23.6,00.3,00.2,0670.2,30.9
2021-10-06T14:34:00Z,00000200,01000000,0000.34,0000.43,0000.44,0000.60,-000.03,-000.12,0000.46,-000.14,0000.30,17.4,23.6,00.2,00.2,0670.2,30.9
2021-10-06T14:35:00Z,00000200,01000000,0001.23,0000.31,0000.34,-000.60,-000.14,0000.14,-000.02,0000.45,0000.11,17.4,23.6,00.2,00.1,0670.2,30.9
2021-10-06T14:36:00Z,00000200,01000000,0000.71,0000.44,0000.06,0000.47,0000.08,0000.11,-000.07,-000.09,-000.06,17.4,23.7,00.3,00.2,0670.1,30.9
2021-10-06T14:37:00Z,00000200,01000000,0000.61,0000.63,0000.30,-000.34,0000.25,0000.00,0000.38,0000.11,0000.15,17.4,23.6,00.4,00.3,0670.1,30.9
2021-10-06T14:38:00Z,00000200,01000000,-000.17,0000.25,0000.53,-000.06,0000.23,0000.00,0000.41,0000.55,0000.37,17.3,23.6,00.5,00.3,0670.1,30.9
2021-10-06T14:39:00Z,00000200,01000000,0000.29,0000.59,0000.01,0000.35,-000.10,0000.39,0000.05,-000.10,-000.02,17.2,23.6,00.4,00.3,0670.1,30.9
2021-10-06T14:40:00Z,00000200,01000000,0000.60,0000.53,0000.04,0000.28,-000.27,0000.05,0000.28,0000.05,0000.17,17.2,23.6,00.5,00.3,0670.2,30.9
2021-10-06T14:41:00Z,00000200,01000000,0000.22,0000.33,0000.11,0000.20,0000.05,0000.11,0000.02,0000.22,-000.09,17.2,23.6,00.4,00.3,0670.1,30.9
2021-10-06T14:42:00Z,00000200,01000000,0000.09,0000.66,0000.42,-000.03,-000.04,0000.46,0000.25,0000.08,0000.11,17.2,23.6,00.4,00.3,0670.1,30.9
2021-10-06T14:43:00Z,00000200,01000000,-000.23,0000.65,0000.04,0000.66,0000.27,-000.04,0000.24,0000.34,0000.46,17.1,23.5,00.4,00.3,0670.2,30.9
2021-10-06T14:44:00Z,00000200,01000000,0000.65,0000.65,0000.19,-000.14,-000.24,0000.19,0000.73,0000.73,0000.28,17.1,23.5,00.4,00.3,0670.2,30.9
2021-10-06T14:45:00Z,00000200,01000000,0000.41,0000.41,0000.25,-000.17,0000.17,0000.16,0000.60,0000.65,0000.44,17.1,23.5,00.4,00.3,0670.2,30.9
2021-10-06T14:46:00Z,00000200,01000000,0000.42,0000.43,0000.10,-000.29,0000.19,0000.03,0000.03,0000.27,0000.42,17.2,23.6,00.6,00.4,0670.2,30.9
2021-10-06T14:47:00Z,00000200,01000000,-000.29,0000.33,0000.17,-000.34,-000.22,0000.02,0000.21,0000.44,0000.22,17.3,23.6,00.5,00.3,0670.2,30.9
2021-10-06T14:48:00Z,00000200,01000000,0000.49,0000.33,0000.25,-000.42,0000.24,-000.04,0000.18,-000.18,-000.09,17.4,23.7,00.5,00.3,0670.2,30.9
2021-10-06T14:49:00Z,00000200,01000000,-000.14,0000.33,0000.42,0000.13,0000.10,0000.16,0000.05,-000.23,0000.02,17.5,23.7,00.6,00.4,0670.2,30.9
2021-10-06T14:50:00Z,00000200,01000000,0000.19,0000.44,0000.31,0000.46,-000.22,0000.33,0000.16,0000.44,-000.00,17.5,23.7,00.6,00.4,0670.2,30.9
2021-10-06T14:51:00Z,00000200,01000000,0000.83,0000.78,0000.17,-000.04,-000.21,0000.09,0000.19,-000.19,0000.27,17.4,23.7,00.5,00.4,0670.2,30.9
2021-10-06T14:52:00Z,00000200,01000000,0000.54,0000.62,0000.31,0000.31,-000.28,-000.04,0000.07,0000.34,-000.06,17.4,23.7,00.5,00.4,0670.2,30.9
2021-10-06T14:53:00Z,00000200,01000000,0000.84,0000.36,0000.29,-000.38,0000.08,-000.07,-000.01,-000.08,0000.15,17.4,23.7,00.5,00.4,0670.2,30.9
2021-10-06T14:54:00Z,00000200,01000000,-000.18,0000.62,0000.31,0000.10,-000.07,0000.08,0000.41,0000.53,0000.01,17.3,23.7,00.6,00.4,0670.2,30.9
2021-10-06T14:55:00Z,00000200,01000000,0000.34,0000.42,-000.03,-000.11,0000.02,0000.02,0000.26,-000.14,0000.03,17.3,23.7,00.6,00.4,0670.2,30.9
2021-10-06T14:56:00Z,00000200,01000000,0000.53,0000.35,0000.23,0000.10,0000.15,-000.09,0000.60,0000.41,0000.23,17.3,23.6,00.7,00.5,0670.2,30.9
2021-10-06T14:57:00Z,00000200,41000000,,,,,,,-000.34,-000.12,-000.05,17.3,23.7,00.6,00.4,0670.3,30.9
2021-10-06T14:58:00Z,00000200,61000000,,,,,,,0000.21,0000.44,0000.34,17.0,23.7,00.4,00.3,0669.2,30.9
2021-10-06T14:59:00Z,00000200,21010000,,,,,,,0000.89,0000.35,0000.53,16.9,23.8,00.6,00.4,0669.2,30.9
